| time (UTC) | temp F | wind direction | speed MPH | gust MPH | rain 1hr in | rain 24hr in | rain mn in | humidity % | barometer mb |
| 20260508153509 | 65 | 0.0 | 0.0 | 0.00 | 0.01 | 0.01 | 92 | 1014.4 | |
| 20260508153012 | 65 | 1.0 | 3.0 | 0.00 | 0.01 | 0.01 | 92 | 1014.7 | |
| 20260508152509 | 65 | 227 | 1.0 | 4.0 | 0.00 | 0.01 | 0.01 | 92 | 1014.8 |
| 20260508152006 | 65 | 79 | 0.0 | 4.0 | 0.00 | 0.01 | 0.01 | 93 | 1014.7 |
| 20260508151515 | 0 | 0.0 | 0.0 | 0.00 | 0.01 | 0.01 | 1014.8 | ||
| 20260508151012 | 0 | 0.0 | 0.0 | 0.00 | 0.01 | 0.01 | 1014.6 | ||
| 20260508150508 | 0 | 0.0 | 0.0 | 0.00 | 0.01 | 0.01 | 1014.3 | ||
| 20260508150020 | 0 | 0.0 | 0.0 | 0.00 | 0.01 | 0.01 | 1014.3 | ||
| 20260508145507 | 0 | 0.0 | 0.0 | 0.00 | 0.01 | 0.01 | 1014.5 | ||
| 20260508145007 | 0 | 0.0 | 0.0 | 0.00 | 0.01 | 0.01 | 1014.9 | ||
| 20260508144533 | 62 | 0.0 | 3.0 | 0.00 | 0.01 | 0.01 | 92 | 1014.6 | |
| 20260508144003 | 62 | 63 | 0.0 | 4.0 | 0.00 | 0.01 | 0.01 | 92 | 1014.6 |
| 20260508143504 | 62 | 51 | 1.0 | 5.0 | 0.00 | 0.01 | 0.01 | 92 | 1014.5 |
| 20260508143016 | 62 | 50 | 1.0 | 5.0 | 0.00 | 0.01 | 0.01 | 92 | 1015.0 |
| 20260508142504 | 62 | 201 | 0.0 | 4.0 | 0.00 | 0.01 | 0.01 | 92 | 1015.4 |
| 20260508142007 | 62 | 204 | 1.0 | 7.0 | 0.00 | 0.01 | 0.01 | 92 | 1015.2 |
| 20260508141510 | 62 | 120 | 2.0 | 7.0 | 0.00 | 0.01 | 0.01 | 91 | 1015.9 |
| 20260508141008 | 62 | 257 | 3.0 | 7.0 | 0.00 | 0.01 | 0.01 | 91 | 1015.3 |
| 20260508140504 | 62 | 53 | 2.0 | 5.0 | 0.00 | 0.01 | 0.01 | 91 | 1014.9 |
| 20260508140008 | 62 | 63 | 1.0 | 4.0 | 0.00 | 0.01 | 0.01 | 91 | 1015.7 |
| 20260508135512 | 62 | 140 | 1.0 | 4.0 | 0.00 | 0.01 | 0.01 | 91 | 1014.3 |
| 20260508135006 | 62 | 209 | 1.0 | 3.0 | 0.00 | 0.01 | 0.01 | 91 | 1015.5 |
| 20260508134504 | 62 | 49 | 0.0 | 3.0 | 0.00 | 0.01 | 0.01 | 91 | 1015.9 |
| 20260508134003 | 62 | 35 | 0.0 | 4.0 | 0.00 | 0.01 | 0.01 | 91 | 1016.1 |
| 20260508133503 | 63 | 172 | 2.0 | 4.0 | 0.00 | 0.01 | 0.01 | 90 | 1016.2 |
| 20260508133003 | 63 | 240 | 0.0 | 2.0 | 0.00 | 0.01 | 0.01 | 90 | 1015.9 |
| 20260508132503 | 63 | 98 | 0.0 | 2.0 | 0.00 | 0.01 | 0.01 | 90 | 1015.4 |
| 20260508132003 | 63 | 70 | 0.0 | 2.0 | 0.00 | 0.01 | 0.01 | 90 | 1014.9 |
| 20260508131520 | 63 | 136 | 0.0 | 2.0 | 0.00 | 0.01 | 0.01 | 90 | 1015.4 |
| 20260508131010 | 63 | 9 | 0.0 | 2.0 | 0.00 | 0.01 | 0.01 | 89 | 1015.1 |
| 20260508130510 | 64 | 336 | 0.0 | 0.0 | 0.00 | 0.01 | 0.01 | 89 | 1015.4 |
| 20260508130026 | 64 | 0.0 | 0.0 | 0.00 | 0.01 | 0.01 | 89 | 1015.0 | |
| 20260508125007 | 64 | 157 | 1.0 | 4.0 | 0.00 | 0.01 | 0.01 | 89 | 1013.5 |
| 20260508124512 | 64 | 348 | 0.0 | 4.0 | 0.00 | 0.01 | 0.01 | 89 | 1014.1 |
| 20260508124007 | 64 | 44 | 1.0 | 4.0 | 0.00 | 0.01 | 0.01 | 88 | 1014.5 |
| 20260508123509 | 64 | 72 | 0.0 | 0.0 | 0.01 | 0.01 | 0.01 | 89 | 1013.6 |
| 20260508123002 | 64 | 72 | 0.0 | 0.0 | 0.01 | 0.01 | 0.01 | 89 | 1013.9 |
| 20260508122503 | 64 | 138 | 0.0 | 0.0 | 0.01 | 0.01 | 0.01 | 89 | 1013.9 |
| 20260508122004 | 64 | 72 | 0.0 | 2.0 | 0.01 | 0.01 | 0.01 | 89 | 1013.9 |
| 20260508121508 | 64 | 72 | 0.0 | 2.0 | 0.01 | 0.01 | 0.01 | 89 | 1013.7 |
| 20260508121002 | 64 | 72 | 0.0 | 2.0 | 0.01 | 0.01 | 0.01 | 89 | 1014.0 |
| 20260508120507 | 64 | 0.0 | 2.0 | 0.01 | 0.01 | 0.01 | 89 | 1013.9 | |
| 20260508120009 | 64 | 138 | 0.0 | 2.0 | 0.01 | 0.01 | 0.01 | 89 | 1014.1 |
| 20260508115506 | 64 | 49 | 0.0 | 2.0 | 0.01 | 0.01 | 0.01 | 89 | 1014.0 |
| 20260508115004 | 64 | 49 | 0.0 | 2.0 | 0.01 | 0.01 | 0.01 | 89 | 1014.0 |
| 20260508114532 | 64 | 32 | 0.0 | 0.0 | 0.01 | 0.01 | 0.01 | 89 | 1013.7 |
| 20260508114006 | 64 | 231 | 0.0 | 0.0 | 0.01 | 0.01 | 0.01 | 89 | 1013.7 |
| 20260508113507 | 64 | 231 | 0.0 | 0.0 | 0.00 | 0.00 | 0.00 | 89 | 1013.8 |
| 20260508113015 | 64 | 231 | 0.0 | 0.0 | 0.00 | 0.00 | 0.00 | 89 | 1013.9 |
| 20260508112507 | 64 | 231 | 0.0 | 0.0 | 0.00 | 0.00 | 0.00 | 89 | 1014.0 |
| 20260508112012 | 64 | 231 | 0.0 | 0.0 | 0.00 | 0.00 | 0.00 | 89 | 1014.0 |
| 20260508111525 | 64 | 231 | 0.0 | 1.0 | 0.00 | 0.00 | 0.00 | 89 | 1014.0 |
| 20260508111007 | 63 | 231 | 0.0 | 2.0 | 0.00 | 0.00 | 0.00 | 89 | 1014.1 |
| 20260508110504 | 63 | 231 | 0.0 | 2.0 | 0.00 | 0.00 | 0.00 | 89 | 1014.3 |
| 20260508110003 | 63 | 230 | 0.0 | 2.0 | 0.00 | 0.00 | 0.00 | 89 | 1014.3 |
| 20260508105503 | 63 | 230 | 0.0 | 2.0 | 0.00 | 0.00 | 0.00 | 90 | 1014.5 |
| 20260508105005 | 63 | 230 | 0.0 | 1.0 | 0.00 | 0.00 | 0.00 | 90 | 1014.5 |
| 20260508104508 | 63 | 261 | 0.0 | 1.0 | 0.00 | 0.00 | 0.00 | 90 | 1014.5 |
| 20260508104006 | 63 | 261 | 0.0 | 1.0 | 0.00 | 0.00 | 0.00 | 90 | 1014.5 |
| 20260508103506 | 63 | 273 | 0.0 | 0.0 | 0.00 | 0.00 | 0.00 | 90 | 1014.5 |
| 20260508103016 | 63 | 344 | 0.0 | 0.0 | 0.00 | 0.00 | 0.00 | 90 | 1014.4 |
| 20260508102007 | 63 | 344 | 0.0 | 1.0 | 0.00 | 0.00 | 0.00 | 90 | 1014.4 |
| 20260508101527 | 63 | 344 | 0.0 | 1.0 | 0.00 | 0.00 | 0.00 | 90 | 1014.6 |
| 20260508100508 | 63 | 344 | 0.0 | 1.0 | 0.00 | 0.00 | 0.00 | 90 | 1014.3 |
| 20260508100027 | 63 | 344 | 0.0 | 1.0 | 0.00 | 0.00 | 0.00 | 90 | 1014.3 |
| 20260508095515 | 63 | 344 | 0.0 | 0.0 | 0.00 | 0.00 | 0.00 | 90 | 1014.5 |
| 20260508095011 | 63 | 344 | 0.0 | 0.0 | 0.00 | 0.00 | 0.00 | 90 | 1014.4 |
| 20260508094506 | 63 | 345 | 0.0 | 0.0 | 0.00 | 0.00 | 0.00 | 90 | 1014.4 |
| 20260508094003 | 63 | 345 | 0.0 | 0.0 | 0.00 | 0.00 | 0.00 | 90 | 1014.4 |
| 20260508093507 | 63 | 344 | 0.0 | 0.0 | 0.00 | 0.00 | 0.00 | 90 | 1014.3 |
| 20260508093014 | 63 | 344 | 0.0 | 0.0 | 0.00 | 0.00 | 0.00 | 90 | 1014.4 |
| 20260508092506 | 63 | 344 | 0.0 | 0.0 | 0.00 | 0.00 | 0.00 | 90 | 1014.4 |
| 20260508092005 | 63 | 344 | 0.0 | 0.0 | 0.00 | 0.00 | 0.00 | 90 | 1014.4 |
| 20260508091527 | 63 | 344 | 0.0 | 0.0 | 0.00 | 0.00 | 0.00 | 90 | 1014.3 |
| 20260508091015 | 63 | 345 | 0.0 | 0.0 | 0.00 | 0.00 | 0.00 | 90 | 1014.2 |
| 20260508090512 | 63 | 345 | 0.0 | 0.0 | 0.00 | 0.00 | 0.00 | 90 | 1014.3 |
| 20260508090027 | 63 | 344 | 0.0 | 0.0 | 0.00 | 0.00 | 0.00 | 90 | 1014.1 |
| 20260508085509 | 63 | 344 | 0.0 | 0.0 | 0.00 | 0.00 | 0.00 | 90 | 1014.3 |
| 20260508085009 | 63 | 344 | 0.0 | 0.0 | 0.00 | 0.00 | 0.00 | 90 | 1014.2 |
| 20260508084523 | 63 | 344 | 0.0 | 0.0 | 0.00 | 0.00 | 0.00 | 90 | 1014.2 |
| 20260508084010 | 63 | 344 | 0.0 | 0.0 | 0.00 | 0.00 | 0.00 | 90 | 1014.3 |
| 20260508083509 | 63 | 344 | 0.0 | 0.0 | 0.00 | 0.00 | 0.00 | 90 | 1014.1 |
| 20260508082508 | 62 | 344 | 0.0 | 0.0 | 0.00 | 0.00 | 0.00 | 90 | 1014.2 |
| 20260508081516 | 62 | 344 | 0.0 | 0.0 | 0.00 | 0.00 | 0.00 | 90 | 1014.4 |
| 20260508080019 | 62 | 344 | 0.0 | 0.0 | 0.00 | 0.01 | 0.00 | 90 | 1014.9 |
| 20260508075507 | 62 | 344 | 0.0 | 1.0 | 0.00 | 0.01 | 0.00 | 90 | 1014.8 |
| 20260508075013 | 62 | 344 | 0.0 | 2.0 | 0.00 | 0.01 | 0.00 | 90 | 1014.7 |
| 20260508074522 | 62 | 341 | 0.0 | 2.0 | 0.00 | 0.01 | 0.00 | 90 | 1014.5 |
| 20260508074009 | 62 | 212 | 0.0 | 2.0 | 0.00 | 0.01 | 0.00 | 90 | 1014.3 |
| 20260508073513 | 62 | 143 | 0.0 | 1.0 | 0.00 | 0.01 | 0.00 | 90 | 1014.0 |
| 20260508073026 | 62 | 348 | 0.0 | 0.0 | 0.00 | 0.01 | 0.00 | 90 | 1014.2 |
| 20260508072007 | 62 | 348 | 0.0 | 0.0 | 0.00 | 0.01 | 0.00 | 89 | 1014.4 |
| 20260508070015 | 62 | 348 | 0.0 | 1.0 | 0.00 | 0.01 | 0.00 | 90 | 1015.2 |
| 20260508065502 | 62 | 348 | 0.0 | 1.0 | 0.00 | 0.01 | 0.00 | 90 | 1015.3 |
| 20260508065003 | 62 | 348 | 0.0 | 1.0 | 0.00 | 0.01 | 0.00 | 90 | 1015.3 |
| 20260508064511 | 62 | 348 | 0.0 | 3.0 | 0.00 | 0.01 | 0.00 | 90 | 1015.1 |
| 20260508062003 | 62 | 172 | 0.0 | 0.0 | 0.00 | 0.01 | 0.00 | 89 | 1015.5 |
| 20260508061508 | 62 | 172 | 0.0 | 0.0 | 0.00 | 0.01 | 0.00 | 89 | 1015.4 |
| 20260508061015 | 62 | 172 | 0.0 | 0.0 | 0.00 | 0.01 | 0.00 | 89 | 1015.1 |
| 20260508055017 | 62 | 172 | 0.0 | 0.0 | 0.00 | 0.01 | 0.00 | 88 | 1014.3 |
| 20260508053503 | 63 | 172 | 0.0 | 0.0 | 0.00 | 0.01 | 0.00 | 88 | 1014.9 |
| 20260508053003 | 63 | 172 | 0.0 | 0.0 | 0.00 | 0.01 | 0.00 | 88 | 1014.9 |
| 20260508051527 | 63 | 172 | 0.0 | 0.0 | 0.00 | 0.01 | 0.00 | 88 | 1015.1 |
| 20260508050017 | 63 | 172 | 0.0 | 0.0 | 0.00 | 0.01 | 0.00 | 88 | 1015.4 |
| 20260508043025 | 63 | 138 | 0.0 | 1.0 | 0.00 | 0.01 | 0.01 | 88 | 1014.3 |
| 20260508042003 | 63 | 54 | 0.0 | 1.0 | 0.00 | 0.01 | 0.01 | 89 | 1014.2 |
| 20260508040504 | 63 | 54 | 0.0 | 0.0 | 0.00 | 0.01 | 0.01 | 89 | 1015.3 |
| 20260508035010 | 63 | 54 | 0.0 | 0.0 | 0.00 | 0.01 | 0.01 | 89 | 1015.4 |
| 20260508033512 | 63 | 54 | 0.0 | 0.0 | 0.00 | 0.01 | 0.01 | 88 | 1015.4 |
| 20260508033019 | 63 | 54 | 0.0 | 0.0 | 0.00 | 0.01 | 0.01 | 88 | 1015.4 |
| 20260508031010 | 63 | 54 | 0.0 | 0.0 | 0.00 | 0.01 | 0.01 | 88 | 1015.4 |
| 20260508030005 | 63 | 54 | 0.0 | 0.0 | 0.00 | 0.01 | 0.01 | 87 | 1015.6 |
| 20260508025511 | 63 | 55 | 0.0 | 0.0 | 0.00 | 0.01 | 0.01 | 87 | 1015.8 |
| 20260508024513 | 63 | 54 | 0.0 | 0.0 | 0.00 | 0.01 | 0.01 | 87 | 1015.8 |
| 20260508023026 | 63 | 55 | 0.0 | 0.0 | 0.00 | 0.01 | 0.01 | 87 | 1015.8 |
| 20260508021522 | 64 | 55 | 0.0 | 0.0 | 0.00 | 0.01 | 0.01 | 86 | 1015.5 |
| 20260508020028 | 64 | 0.0 | 0.0 | 0.00 | 0.01 | 0.01 | 85 | 1015.1 | |
| 20260508014527 | 64 | 55 | 0.0 | 0.0 | 0.00 | 0.01 | 0.01 | 85 | 1015.0 |
| 20260508014013 | 64 | 55 | 0.0 | 0.0 | 0.00 | 0.01 | 0.01 | 85 | 1014.9 |
| 20260508013014 | 64 | 56 | 0.0 | 0.0 | 0.00 | 0.01 | 0.01 | 84 | 1014.7 |
| 20260508011519 | 64 | 59 | 0.0 | 0.0 | 0.00 | 0.01 | 0.01 | 83 | 1014.6 |
| 20260508010510 | 65 | 59 | 0.0 | 0.0 | 0.00 | 0.01 | 0.01 | 82 | 1015.1 |
| 20260508010032 | 65 | 360 | 0.0 | 0.0 | 0.00 | 0.01 | 0.01 | 82 | 1015.1 |
| 20260508005511 | 65 | 64 | 0.0 | 0.0 | 0.00 | 0.01 | 0.01 | 82 | 1015.2 |
| 20260508004537 | 0 | 0.0 | 0.0 | 0.00 | 0.01 | 0.01 | 1015.3 | ||
| 20260508003509 | 0 | 0.0 | 0.0 | 0.00 | 0.01 | 0.01 | 1014.7 | ||
| 20260508003026 | 0 | 0.0 | 0.0 | 0.00 | 0.01 | 0.01 | 1014.5 | ||
| 20260508002510 | 0 | 0.0 | 0.0 | 0.00 | 0.01 | 0.01 | 1014.5 | ||
| 20260508002014 | 0 | 0.0 | 0.0 | 0.00 | 0.01 | 0.01 | 1014.5 | ||
| 20260508001529 | 0 | 0.0 | 0.0 | 0.00 | 0.01 | 0.01 | 1014.7 | ||
| 20260508001009 | 0 | 0.0 | 0.0 | 0.00 | 0.01 | 0.01 | 1014.8 | ||
| 20260508000515 | 0 | 0.0 | 0.0 | 0.00 | 0.01 | 0.01 | 1015.1 | ||
| 20260508000027 | 0 | 0.0 | 0.0 | 0.00 | 0.01 | 0.01 | 1015.0 | ||
| 20260507235508 | 0 | 0.0 | 0.0 | 0.00 | 0.01 | 0.01 | 1014.7 | ||
| 20260507235011 | 0 | 0.0 | 0.0 | 0.00 | 0.01 | 0.01 | 1014.3 | ||
| 20260507234533 | 0 | 0.0 | 0.0 | 0.00 | 0.01 | 0.01 | 1014.5 | ||
| 20260507234011 | 0 | 0.0 | 0.0 | 0.00 | 0.01 | 0.01 | 1014.7 | ||
| 20260507233511 | 0 | 0.0 | 0.0 | 0.00 | 0.01 | 0.01 | 1015.0 | ||
| 20260507233033 | 0 | 0.0 | 0.0 | 0.00 | 0.01 | 0.01 | 1014.9 | ||
| 20260507232515 | 70 | 0.0 | 2.0 | 0.00 | 0.01 | 0.01 | 69 | 1014.9 | |
| 20260507232010 | 70 | 15 | 0.0 | 3.0 | 0.00 | 0.01 | 0.01 | 69 | 1014.9 |
| 20260507231525 | 70 | 10 | 2.0 | 3.0 | 0.00 | 0.01 | 0.01 | 68 | 1015.1 |
| 20260507231011 | 71 | 15 | 1.0 | 4.0 | 0.00 | 0.01 | 0.01 | 69 | 1015.0 |
| 20260507230512 | 71 | 17 | 0.0 | 4.0 | 0.00 | 0.01 | 0.01 | 70 | 1015.0 |
| 20260507230028 | 71 | 9 | 1.0 | 3.0 | 0.00 | 0.01 | 0.01 | 70 | 1015.3 |
| 20260507225509 | 71 | 14 | 0.0 | 3.0 | 0.00 | 0.01 | 0.01 | 70 | 1015.3 |
| 20260507225008 | 71 | 9 | 1.0 | 0.0 | 0.00 | 0.01 | 0.01 | 72 | 1015.3 |
| 20260507224528 | 0 | 13 | 0.0 | 0.0 | 0.00 | 0.01 | 0.01 | 1015.2 | |
| 20260507224012 | 0 | 0.0 | 0.0 | 0.00 | 0.01 | 0.01 | 1015.3 | ||
| 20260507223513 | 0 | 0.0 | 0.0 | 0.00 | 0.01 | 0.01 | 1015.3 | ||
| 20260507223029 | 0 | 0.0 | 0.0 | 0.00 | 0.01 | 0.01 | 1015.3 | ||
| 20260507222516 | 0 | 0.0 | 0.0 | 0.00 | 0.01 | 0.01 | 1015.2 | ||
| 20260507222008 | 0 | 0.0 | 0.0 | 0.00 | 0.01 | 0.01 | 1015.1 | ||
| 20260507221526 | 0 | 0.0 | 0.0 | 0.00 | 0.01 | 0.01 | 1015.0 | ||
| 20260507221013 | 0 | 0.0 | 0.0 | 0.00 | 0.01 | 0.01 | 1015.4 | ||
| 20260507220519 | 0 | 0.0 | 0.0 | 0.00 | 0.01 | 0.01 | 1015.2 | ||
| 20260507220026 | 0 | 0.0 | 0.0 | 0.00 | 0.01 | 0.01 | 1014.8 | ||
| 20260507215511 | 0 | 0.0 | 0.0 | 0.00 | 0.01 | 0.01 | 1014.7 | ||
| 20260507215011 | 0 | 0.0 | 0.0 | 0.00 | 0.01 | 0.01 | 1014.5 | ||
| 20260507214531 | 0 | 0.0 | 0.0 | 0.00 | 0.01 | 0.01 | 1014.5 | ||
| 20260507214012 | 0 | 0.0 | 0.0 | 0.00 | 0.01 | 0.01 | 1014.5 | ||
| 20260507213508 | 0 | 0.0 | 0.0 | 0.00 | 0.01 | 0.01 | 1014.7 | ||
| 20260507213037 | 75 | 0.0 | 0.0 | 0.00 | 0.01 | 0.01 | 67 | 1014.8 | |
| 20260507212513 | 75 | 73 | 0.0 | 4.0 | 0.00 | 0.01 | 0.01 | 67 | 1014.8 |
| 20260507212004 | 74 | 120 | 0.0 | 4.0 | 0.00 | 0.01 | 0.01 | 65 | 1015.0 |
| 20260507211507 | 75 | 77 | 1.0 | 7.0 | 0.00 | 0.01 | 0.01 | 66 | 1015.1 |
| 20260507211006 | 75 | 38 | 0.0 | 6.0 | 0.00 | 0.01 | 0.01 | 63 | 1015.2 |
| 20260507210508 | 75 | 99 | 1.0 | 3.0 | 0.00 | 0.01 | 0.01 | 63 | 1015.4 |
| 20260507210028 | 75 | 16 | 1.0 | 0.0 | 0.00 | 0.01 | 0.01 | 65 | 1015.5 |
| 20260507205513 | 0 | 0.0 | 0.0 | 0.00 | 0.01 | 0.01 | 1015.6 | ||
| 20260507205011 | 0 | 0.0 | 0.0 | 0.00 | 0.01 | 0.01 | 1015.5 | ||
| 20260507204528 | 0 | 0.0 | 0.0 | 0.00 | 0.01 | 0.01 | 1015.6 | ||
| 20260507204010 | 75 | 0.0 | 0.0 | 0.00 | 0.01 | 0.01 | 67 | 1015.5 | |
| 20260507203510 | 75 | 0.0 | 3.0 | 0.00 | 0.01 | 0.01 | 67 | 1015.4 | |
| 20260507203020 | 75 | 96 | 0.0 | 4.0 | 0.00 | 0.01 | 0.01 | 68 | 1015.5 |
| 20260507202503 | 75 | 21 | 0.0 | 4.0 | 0.00 | 0.01 | 0.01 | 67 | 1015.4 |
| 20260507202020 | 75 | 58 | 1.0 | 7.0 | 0.00 | 0.01 | 0.01 | 65 | 1015.5 |
| 20260507201509 | 75 | 66 | 2.0 | 0.0 | 0.00 | 0.01 | 0.01 | 67 | 1015.6 |
| 20260507201012 | 0 | 0.0 | 0.0 | 0.00 | 0.01 | 0.01 | 1015.7 | ||
| 20260507200512 | 0 | 0.0 | 0.0 | 0.00 | 0.01 | 0.01 | 1015.9 | ||
| 20260507200027 | 0 | 0.0 | 0.0 | 0.00 | 0.01 | 0.01 | 1016.0 | ||
| 20260507195508 | 0 | 0.0 | 0.0 | 0.00 | 0.01 | 0.01 | 1015.9 | ||
| 20260507195011 | 0 | 0.0 | 0.0 | 0.00 | 0.01 | 0.01 | 1015.8 | ||
| 20260507194528 | 0 | 0.0 | 0.0 | 0.00 | 0.01 | 0.01 | 1015.5 | ||
| 20260507194009 | 0 | 0.0 | 0.0 | 0.00 | 0.01 | 0.01 | 1015.5 | ||
| 20260507193510 | 0 | 0.0 | 0.0 | 0.00 | 0.01 | 0.01 | 1015.4 | ||
| 20260507193030 | 0 | 0.0 | 0.0 | 0.00 | 0.01 | 0.01 | 1015.4 | ||
| 20260507192512 | 0 | 0.0 | 0.0 | 0.00 | 0.01 | 0.01 | 1015.8 | ||
| 20260507192013 | 0 | 0.0 | 0.0 | 0.00 | 0.01 | 0.01 | 1015.9 | ||
| 20260507191531 | 0 | 0.0 | 0.0 | 0.00 | 0.01 | 0.01 | 1016.0 | ||
| 20260507191013 | 0 | 0.0 | 0.0 | 0.00 | 0.01 | 0.01 | 1016.1 | ||
| 20260507190513 | 0 | 0.0 | 0.0 | 0.00 | 0.01 | 0.01 | 1016.1 | ||
| 20260507190030 | 0 | 0.0 | 0.0 | 0.00 | 0.01 | 0.01 | 1016.1 | ||
| 20260507185511 | 0 | 0.0 | 0.0 | 0.00 | 0.01 | 0.01 | 1016.4 | ||
| 20260507185012 | 74 | 0.0 | 0.0 | 0.00 | 0.01 | 0.01 | 67 | 1016.5 | |
| 20260507184529 | 74 | 1.0 | 4.0 | 0.00 | 0.01 | 0.01 | 67 | 1016.5 | |
| 20260507184007 | 74 | 78 | 1.0 | 6.0 | 0.00 | 0.01 | 0.01 | 69 | 1016.6 |
| 20260507183510 | 74 | 117 | 2.0 | 6.0 | 0.00 | 0.01 | 0.01 | 68 | 1016.5 |
| 20260507183028 | 74 | 96 | 1.0 | 6.0 | 0.00 | 0.01 | 0.01 | 67 | 1016.4 |
| 20260507182512 | 74 | 119 | 1.0 | 6.0 | 0.00 | 0.01 | 0.01 | 66 | 1016.5 |
| 20260507182014 | 74 | 114 | 1.0 | 4.0 | 0.00 | 0.01 | 0.01 | 66 | 1016.5 |
| 20260507181526 | 74 | 38 | 2.0 | 5.0 | 0.00 | 0.01 | 0.01 | 68 | 1016.6 |
| 20260507181014 | 74 | 147 | 1.0 | 5.0 | 0.00 | 0.01 | 0.01 | 74 | 1016.6 |
| 20260507180507 | 74 | 39 | 1.0 | 5.0 | 0.00 | 0.01 | 0.01 | 70 | 1016.7 |
| 20260507180004 | 74 | 259 | 1.0 | 0.0 | 0.00 | 0.01 | 0.01 | 70 | 1016.8 |
| 20260507175517 | 0 | 0.0 | 0.0 | 0.00 | 0.01 | 0.01 | 1017.0 | ||
| 20260507175011 | 0 | 0.0 | 0.0 | 0.00 | 0.01 | 0.01 | 1016.9 | ||
| 20260507174544 | 0 | 0.0 | 0.0 | 0.00 | 0.01 | 0.01 | 1016.9 | ||
| 20260507174011 | 0 | 0.0 | 0.0 | 0.00 | 0.01 | 0.01 | 1017.0 | ||
| 20260507173514 | 0 | 0.0 | 0.0 | 0.00 | 0.01 | 0.01 | 1017.0 | ||
| 20260507173030 | 0 | 0.0 | 0.0 | 0.00 | 0.01 | 0.01 | 1017.0 | ||
| 20260507172512 | 0 | 0.0 | 0.0 | 0.00 | 0.01 | 0.01 | 1016.9 | ||
| 20260507172019 | 0 | 0.0 | 0.0 | 0.00 | 0.01 | 0.01 | 1016.9 | ||
| 20260507171539 | 0 | 0.0 | 0.0 | 0.00 | 0.01 | 0.01 | 1016.7 | ||
| 20260507171012 | 0 | 0.0 | 0.0 | 0.00 | 0.01 | 0.01 | 1016.7 | ||
| 20260507170515 | 0 | 0.0 | 0.0 | 0.00 | 0.01 | 0.01 | 1016.5 | ||
| 20260507170031 | 0 | 0.0 | 0.0 | 0.00 | 0.01 | 0.01 | 1016.6 | ||
| 20260507165518 | 0 | 0.0 | 0.0 | 0.00 | 0.01 | 0.01 | 1016.7 | ||
| 20260507165012 | 0 | 0.0 | 0.0 | 0.00 | 0.01 | 0.01 | 1016.7 | ||
| 20260507164528 | 0 | 0.0 | 0.0 | 0.00 | 0.01 | 0.01 | 1016.7 | ||
| 20260507164014 | 0 | 0.0 | 0.0 | 0.00 | 0.01 | 0.01 | 1016.6 | ||
| 20260507163511 | 0 | 0.0 | 0.0 | 0.00 | 0.01 | 0.01 | 1016.8 | ||
| 20260507163029 | 0 | 0.0 | 0.0 | 0.00 | 0.01 | 0.01 | 1016.7 | ||
| 20260507162514 | 0 | 0.0 | 0.0 | 0.00 | 0.01 | 0.01 | 1016.6 | ||
| 20260507162013 | 0 | 0.0 | 0.0 | 0.00 | 0.01 | 0.01 | 1016.7 | ||
| 20260507161530 | 0 | 0.0 | 0.0 | 0.00 | 0.01 | 0.01 | 1016.8 | ||
| 20260507161013 | 0 | 0.0 | 0.0 | 0.00 | 0.01 | 0.01 | 1017.0 | ||
| 20260507160512 | 0 | 0.0 | 0.0 | 0.00 | 0.01 | 0.01 | 1017.0 | ||
| 20260507160031 | 0 | 0.0 | 0.0 | 0.00 | 0.01 | 0.01 | 1017.1 | ||
| 20260507155511 | 0 | 0.0 | 0.0 | 0.00 | 0.01 | 0.01 | 1017.2 | ||
| 20260507155014 | 0 | 0.0 | 0.0 | 0.00 | 0.01 | 0.01 | 1017.3 | ||
| 20260507154531 | 0 | 0.0 | 0.0 | 0.00 | 0.01 | 0.01 | 1017.4 | ||
| 20260507154013 | 0 | 0.0 | 0.0 | 0.00 | 0.01 | 0.01 | 1017.6 |